Regional Weather Roundup
Issued by NWS

Home | Current Version | Previous Version | Text Only | Print | Product List | Glossary On
Versions: 1 2 3 4 5 6 7 8 9 10 11 12 13 14 15 16 17 18 19 20 21 22 23 24 25 26 27
000
ASUS45 KSLC 250110
RWRUT

UTAH REGIONAL WEATHER ROUNDUP
NATIONAL WEATHER SERVICE SALT LAKE CITY UT
600 PM MST FRI FEB 24 2017

UTZ001>011-023>025-250200-

NORTHERN UTAH

CITY           SKY/WX    TMP DP  RH WIND       PRES   REMARKS
BRIGHAM CITY     N/A     27  16  63 CALM      30.12S
HILL AFB       PTCLDY    28  10  47 CALM      30.10R
LOGAN          PTCLDY    27  18  69 CALM      30.11R
OGDEN          PTCLDY    28  11  48 CALM      30.10S
SALT LAKE CITY   N/A     31  14  49 W3        30.12R
TOOELE VALLEY  MOCLDY    32  18  55 CALM      30.12S
WENDOVER       CLOUDY    32   7  34 SW5       30.11R WCI  27
HEBER CITY     PTCLDY    18  12  79 E7        30.06R WCI   8
WEST JORDAN    PTCLDY    30  20  64 CALM      30.12R

$$

UTZ011>015-024>027-250200-

CENTRAL/NORTHEAST UTAH

CITY           SKY/WX    TMP DP  RH WIND       PRES   REMARKS
PROVO AIRPORT  NOT AVBL
MOAB/CANYONLAN PTCLDY    33   7  33 NW8       30.02R WCI  26
DELTA          PTCLDY    28  18  64 CALM      30.12R
PRICE          PTCLDY    26   9  48 NW9       30.02R WCI  17
RICHFIELD      CLEAR     28  12  50 N6        30.12R WCI  22
ROOSEVELT      CLEAR     30  19  64 N3        30.05R
VERNAL         PTCLDY    23  14  68 E3        30.03R

$$

UTZ013>016-019>022-027-250200-

SOUTHERN UTAH

CITY           SKY/WX    TMP DP  RH WIND       PRES   REMARKS
BRYCE CANYON   PTCLDY    18   1  47 N8        30.01R WCI   8
CEDAR CITY     CLEAR     33   3  28 NW7       30.02S WCI  27
MILFORD        CLEAR     30  10  43 N9        30.08R WCI  22
ST GEORGE      PTCLDY    45   5  19 W14       30.10S
HANKSVILLE     CLEAR     36  -4  18 NW15      30.07R WCI  26
KANAB          CLEAR     37   5  25 SW9       30.10R WCI  31
BLANDING       PTCLDY    31   6  35 W5        30.08R WCI  26

$$

REGIONAL REPORTS     COLORADO/ARIZONA

CITY           SKY/WX    TMP DP  RH WIND       PRES   REMARKS
CRAIG, CO      CLEAR     17   8  67 W5        29.99R WCI  10
GRAND JUNCTION FLURRIES  31  15  52 N8        30.01R WCI  23
RIFLE, CO      CLOUDY    25  20  81 W3        30.00R
MONTROSE, CO   CLOUDY    25  20  81 S9        30.02R WCI  15
CORTEZ, CO     CLEAR     28  16  60 N3        30.00R
COLORADO CITY    N/A     37   7  28 W8        30.10S WCI  31
PAGE, AZ       CLEAR     42 -10  11 W12G18    30.03R
GRAND CANYON   CLEAR     32   3  29 W5        30.04R WCI  27
KINGMAN, AZ    CLEAR     48  -8   9 N9        30.09R
FLAGSTAFF, AZ  CLEAR     33   5  30 W13G21    30.03R WCI  24

$$

REGIONAL REPORTS    NEVADA/IDAHO/WYOMING

CITY           SKY/WX    TMP DP  RH WIND       PRES   REMARKS
LAS VEGAS, NV  PTCLDY    53   9  17 E10       30.08R
ELY, NY        PTCLDY    24   7  48 E3        30.04S
ELKO, NV       CLEAR     29   7  39 SW3       30.07R
POCATELLO, ID  CLOUDY    23  15  71 SW15      30.12R WCI  10
BURLEY, ID     CLEAR     27  13  55 SW13      30.11R WCI  16
FORT BRIDGER,    N/A     16  10  77 W17       30.01R WCI   0
EVANSTON, WY   CLEAR     11   3  70 W13       29.99R WCI  -4
ROCK SPRINGS,  CLOUDY    16   8  71 SW14      29.96R WCI   2

$$




USA.gov is the U.S. government's official web portal to all federal, state and local government web resources and services.